TimeEDT,TemperatureF,Dew PointF,Humidity,Sea Level PressureIn,VisibilityMPH,Wind Direction,Wind SpeedMPH,Gust SpeedMPH,PrecipitationIn,Events,Conditions,WindDirDegrees,DateUTC
12:15 AM,44.6,3.2,18,30.08,10.0,Calm,Calm,-,N/A,,Clear,0,2013-03-20 04:15:00
12:35 AM,44.6,3.2,18,30.08,10.0,Calm,Calm,-,N/A,,Clear,0,2013-03-20 04:35:00
12:55 AM,42.8,1.4,18,30.08,10.0,Calm,Calm,-,N/A,,Clear,0,2013-03-20 04:55:00
1:15 AM,42.8,1.4,18,30.08,10.0,Calm,Calm,-,N/A,,Clear,0,2013-03-20 05:15:00
1:35 AM,42.8,-0.4,16,30.08,10.0,NW,3.5,-,N/A,,Clear,310,2013-03-20 05:35:00
1:55 AM,42.8,3.2,19,30.08,10.0,NW,3.5,-,N/A,,Clear,310,2013-03-20 05:55:00
2:15 AM,41.0,5.0,23,30.09,10.0,NW,4.6,-,N/A,,Clear,310,2013-03-20 06:15:00
2:35 AM,41.0,3.2,21,30.09,10.0,NW,4.6,-,N/A,,Scattered Clouds,310,2013-03-20 06:35:00
2:55 AM,41.0,3.2,21,30.09,10.0,NW,4.6,-,N/A,,Clear,310,2013-03-20 06:55:00
3:15 AM,41.0,5.0,23,30.09,10.0,NW,3.5,-,N/A,,Clear,310,2013-03-20 07:15:00
3:35 AM,41.0,1.4,19,30.08,10.0,NNW,3.5,-,N/A,,Clear,330,2013-03-20 07:35:00
3:55 AM,41.0,3.2,21,30.08,10.0,NW,3.5,-,N/A,,Scattered Clouds,320,2013-03-20 07:55:00
4:15 AM,41.0,1.4,19,30.08,10.0,NNW,4.6,-,N/A,,Scattered Clouds,330,2013-03-20 08:15:00
4:35 AM,41.0,5.0,23,30.07,10.0,NW,5.8,-,N/A,,Scattered Clouds,320,2013-03-20 08:35:00
4:55 AM,41.0,5.0,23,30.07,10.0,NW,5.8,-,N/A,,Clear,310,2013-03-20 08:55:00
5:15 AM,41.0,5.0,23,30.07,10.0,NW,4.6,-,N/A,,Scattered Clouds,310,2013-03-20 09:15:00
5:35 AM,41.0,3.2,21,30.06,10.0,NW,4.6,-,N/A,,Scattered Clouds,310,2013-03-20 09:35:00
5:55 AM,39.2,8.6,28,30.06,10.0,WNW,3.5,-,N/A,,Mostly Cloudy,300,2013-03-20 09:55:00
6:15 AM,39.2,10.4,31,30.07,10.0,NW,3.5,-,N/A,,Overcast,310,2013-03-20 10:15:00
6:35 AM,39.2,10.4,31,30.08,10.0,Calm,Calm,-,N/A,,Mostly Cloudy,0,2013-03-20 10:35:00
6:55 AM,39.2,10.4,31,30.09,10.0,NW,3.5,-,N/A,,Scattered Clouds,320,2013-03-20 10:55:00
7:15 AM,39.2,12.2,33,30.10,10.0,NW,4.6,-,N/A,,Mostly Cloudy,320,2013-03-20 11:15:00
7:35 AM,41.0,10.4,29,30.11,10.0,NW,3.5,-,N/A,,Scattered Clouds,320,2013-03-20 11:35:00
7:55 AM,41.0,8.6,26,30.10,10.0,NW,4.6,-,N/A,,Clear,310,2013-03-20 11:55:00
8:15 AM,41.0,6.8,24,30.09,10.0,NW,3.5,-,N/A,,Clear,320,2013-03-20 12:15:00
8:35 AM,41.0,10.4,29,30.09,10.0,NNW,3.5,-,N/A,,Clear,330,2013-03-20 12:35:00
8:55 AM,41.0,6.8,24,30.11,10.0,NW,3.5,-,N/A,,Scattered Clouds,310,2013-03-20 12:55:00
9:15 AM,42.8,3.2,19,30.11,10.0,Calm,Calm,-,N/A,,Clear,0,2013-03-20 13:15:00
9:35 AM,42.8,1.4,18,30.12,10.0,Calm,Calm,-,N/A,,Clear,0,2013-03-20 13:35:00
9:55 AM,44.6,-0.4,15,30.13,10.0,Calm,Calm,-,N/A,,Clear,0,2013-03-20 13:55:00
10:15 AM,44.6,-7.6,11,30.13,10.0,Calm,Calm,-,N/A,,Clear,0,2013-03-20 14:15:00
10:35 AM,46.4,-9.4,9,30.14,10.0,Calm,Calm,-,N/A,,Mostly Cloudy,0,2013-03-20 14:35:00
10:55 AM,46.4,-20.2,6,30.13,10.0,Calm,Calm,-,N/A,,Scattered Clouds,0,2013-03-20 14:55:00
11:15 AM,48.2,-32.8,4,30.13,10.0,Calm,Calm,-,N/A,,Clear,0,2013-03-20 15:15:00
11:35 AM,48.2,-25.6,4,30.13,10.0,Calm,Calm,-,N/A,,Scattered Clouds,0,2013-03-20 15:35:00
11:55 AM,50.0,-18.4,5,30.12,10.0,Calm,Calm,-,N/A,,Clear,0,2013-03-20 15:55:00
12:15 PM,50.0,-27.4,4,30.11,10.0,WNW,4.6,-,N/A,,Clear,300,2013-03-20 16:15:00
12:35 PM,51.8,-5.8,9,30.11,10.0,Calm,Calm,-,N/A,,Clear,0,2013-03-20 16:35:00
12:55 PM,51.8,-32.8,4,30.09,10.0,NW,4.6,-,N/A,,Clear,310,2013-03-20 16:55:00
1:15 PM,51.8,-13.0,7,30.08,10.0,Calm,Calm,-,N/A,,Clear,0,2013-03-20 17:15:00
1:55 PM,55.4,-34.6,4,30.05,10.0,WNW,6.9,-,N/A,,Clear,290,2013-03-20 17:55:00
2:15 PM,55.4,-31.0,4,30.03,10.0,West,3.5,-,N/A,,Clear,270,2013-03-20 18:15:00
2:35 PM,57.2,-36.4,4,30.01,10.0,WNW,5.8,-,N/A,,Clear,300,2013-03-20 18:35:00
2:55 PM,57.2,-32.8,4,30.00,10.0,West,9.2,-,N/A,,Clear,280,2013-03-20 18:55:00
3:15 PM,57.2,-40.0,4,29.99,10.0,WNW,5.8,17.3,N/A,,Clear,290,2013-03-20 19:15:00
3:35 PM,59.0,-34.6,4,29.98,10.0,WNW,8.1,-,N/A,,Clear,300,2013-03-20 19:35:00
3:55 PM,-9999,-9999,N/A,29.96,10.0,NW,9.2,19.6,N/A,,Clear,310,2013-03-20 19:55:00
4:15 PM,-9999,-9999,N/A,29.96,10.0,NW,6.9,18.4,N/A,,Clear,310,2013-03-20 20:15:00
4:35 PM,-9999,-9999,N/A,29.94,10.0,NW,12.7,19.6,N/A,,Clear,310,2013-03-20 20:35:00
4:55 PM,59.0,-36.4,4,29.94,10.0,WNW,4.6,-,N/A,,Clear,290,2013-03-20 20:55:00
5:15 PM,57.2,-27.4,4,29.93,10.0,NW,8.1,-,N/A,,Clear,320,2013-03-20 21:15:00
5:35 PM,55.4,-23.8,4,29.92,10.0,WNW,9.2,-,N/A,,Clear,300,2013-03-20 21:35:00
5:55 PM,55.4,-18.4,4,29.92,10.0,WNW,5.8,17.3,N/A,,Clear,300,2013-03-20 21:55:00
6:15 PM,55.4,-27.4,4,29.92,10.0,West,10.4,23.0,N/A,,Scattered Clouds,280,2013-03-20 22:15:00
6:35 PM,53.6,-16.6,5,29.92,10.0,NW,5.8,18.4,N/A,,Scattered Clouds,310,2013-03-20 22:35:00
6:55 PM,53.6,-11.2,7,29.92,10.0,NW,6.9,18.4,N/A,,Scattered Clouds,310,2013-03-20 22:55:00
7:15 PM,51.8,-9.4,8,29.91,10.0,NW,8.1,16.1,N/A,,Scattered Clouds,310,2013-03-20 23:15:00
7:35 PM,51.8,-5.8,9,29.91,10.0,WNW,8.1,-,N/A,,Scattered Clouds,300,2013-03-20 23:35:00
7:55 PM,50.0,-4.0,11,29.91,10.0,WNW,10.4,20.7,N/A,,Mostly Cloudy,300,2013-03-20 23:55:00
8:15 PM,50.0,1.4,14,29.91,10.0,WNW,6.9,-,N/A,,Scattered Clouds,300,2013-03-21 00:15:00
8:35 PM,48.2,3.2,16,29.91,10.0,WNW,4.6,-,N/A,,Scattered Clouds,290,2013-03-21 00:35:00
8:55 PM,46.4,6.8,20,29.91,10.0,WNW,10.4,16.1,N/A,,Scattered Clouds,290,2013-03-21 00:55:00
9:15 PM,48.2,5.0,17,29.90,10.0,WNW,9.2,17.3,N/A,,Clear,290,2013-03-21 01:15:00
9:35 PM,46.4,6.8,20,29.90,10.0,WNW,10.4,17.3,N/A,,Scattered Clouds,300,2013-03-21 01:35:00
9:55 PM,46.4,8.6,22,29.90,10.0,WNW,8.1,-,N/A,,Clear,290,2013-03-21 01:55:00
10:15 PM,46.4,8.6,22,29.90,10.0,WNW,9.2,18.4,N/A,,Scattered Clouds,290,2013-03-21 02:15:00
10:35 PM,46.4,10.4,23,29.92,10.0,NW,12.7,23.0,N/A,,Mostly Cloudy,310,2013-03-21 02:35:00
10:55 PM,44.6,17.6,34,29.93,10.0,NW,8.1,18.4,N/A,,Mostly Cloudy,320,2013-03-21 02:55:00
11:15 PM,44.6,21.2,39,29.94,10.0,NW,8.1,19.6,N/A,,Mostly Cloudy,320,2013-03-21 03:15:00
11:35 PM,42.8,21.2,42,29.94,10.0,NW,9.2,18.4,N/A,,Overcast,320,2013-03-21 03:35:00
11:55 PM,41.0,21.2,45,29.94,10.0,NW,9.2,17.3,N/A,,Scattered Clouds,310,2013-03-21 03:55:00